Total_Precipitation_Accumulation
0.65 0.67 0.70 0.65 0.61 0.59 0.62 0.77 1.00 0.84 0.42 0.22 0.20 0.23 0.29 0.36 0.44 0.49 0.48 0.57 0.63 0.68 0.79 0.89 0.96 1.02 1.18 1.53 2.25 3.15 3.86 4.02 3.73 3.21 2.96 3.19 3.53 4.02
0.72 0.73 0.74 0.72 0.69 0.66 0.67 0.69 0.84 1.00 0.73 0.29 0.24 0.25 0.32 0.37 0.46 0.49 0.48 0.55 0.61 0.67 0.71 0.77 0.88 1.00 1.12 1.28 1.60 2.30 3.10 3.75 4.02 3.96 3.72 3.63 3.82 4.12
0.84 0.85 0.79 0.75 0.79 0.77 0.75 0.75 0.75 0.88 0.90 0.40 0.26 0.29 0.40 0.49 0.49 0.48 0.48 0.49 0.51 0.61 0.67 0.71 0.76 0.86 1.00 1.14 1.31 1.70 2.39 3.06 3.66 4.06 4.27 4.20 4.13 4.14
0.93 0.92 0.88 0.86 0.86 0.85 0.89 0.87 0.80 0.78 0.89 0.67 0.37 0.34 0.39 0.48 0.52 0.53 0.52 0.50 0.49 0.57 0.63 0.70 0.76 0.83 0.90 1.02 1.18 1.35 1.74 2.28 2.88 3.46 3.87 3.99 4.01 4.21
0.96 1.01 0.99 0.99 0.98 0.94 0.95 0.97 0.92 0.84 0.86 0.86 0.57 0.42 0.43 0.50 0.60 0.61 0.59 0.60 0.57 0.60 0.63 0.70 0.78 0.85 0.89 0.97 1.10 1.24 1.36 1.61 2.03 2.70 3.38 3.67 3.69 3.76
0.99 1.02 1.06 1.10 1.11 1.12 1.18 1.17 1.15 1.14 1.07 1.04 0.84 0.64 0.60 0.60 0.71 0.73 0.68 0.65 0.69 0.67 0.70 0.69 0.75 0.82 0.85 0.88 0.91 0.99 1.17 1.49 1.81 2.20 2.76 3.21 3.32 3.34
1.05 1.04 1.05 1.14 1.29 1.45 1.59 1.52 1.42 1.45 1.39 1.33 1.15 0.93 0.79 0.80 0.89 0.83 0.84 0.75 0.77 0.78 0.76 0.72 0.70 0.69 0.74 0.85 0.94 1.01 1.08 1.27 1.52 1.86 2.29 2.75 3.06 3.13
1.01 0.93 0.93 0.99 1.08 1.22 1.41 1.44 1.44 1.59 1.66 1.59 1.41 1.21 0.93 0.84 0.94 1.08 1.16 1.17 1.05 0.86 0.88 0.86 0.81 0.81 0.79 0.81 0.95 1.02 1.12 1.27 1.40 1.60 1.96 2.32 2.70 3.04
0.84 0.81 0.79 0.81 0.91 0.87 1.01 1.09 1.15 1.26 1.44 1.59 1.64 1.34 1.11 1.01 1.22 1.41 1.41 1.37 1.11 0.93 1.08 1.18 1.04 0.99 0.92 0.95 1.05 1.02 1.10 1.23 1.37 1.50 1.65 1.94 2.30 2.71
0.79 0.78 0.76 0.74 0.80 0.96 1.04 1.00 0.92 0.93 1.10 1.31 1.50 1.39 1.28 1.32 1.59 1.84 1.90 1.89 1.56 1.23 1.21 1.43 1.27 1.21 1.15 1.10 1.12 1.04 1.08 1.14 1.23 1.38 1.55 1.74 1.97 2.30
0.84 0.86 0.86 0.78 0.88 1.08 1.15 1.09 0.92 0.84 0.91 1.15 1.37 1.49 1.58 1.74 2.00 2.32 2.41 2.46 2.25 1.78 1.50 1.54 1.44 1.37 1.36 1.31 1.27 1.21 1.14 1.13 1.14 1.23 1.39 1.59 1.83 2.09
0.87 0.91 1.05 1.02 1.03 1.11 1.15 1.21 1.16 0.91 0.80 0.87 0.96 1.08 1.19 1.37 1.72 1.99 2.18 2.39 2.33 2.17 1.76 1.67 1.67 1.65 1.79 1.50 1.29 1.21 1.16 1.20 1.15 1.11 1.16 1.32 1.58 1.78
0.95 0.97 1.00 1.10 1.09 1.13 1.17 1.18 1.20 1.07 0.96 0.98 0.96 0.94 1.00 1.15 1.35 1.61 1.89 2.16 2.32 2.19 1.78 1.88 2.06 1.91 1.90 1.68 1.38 1.24 1.16 1.10 1.03 1.02 1.05 1.15 1.36 1.56
0.99 0.87 0.93 1.11 1.12 1.17 1.14 1.16 1.19 1.17 1.10 1.07 0.99 0.90 0.91 1.04 1.15 1.35 1.65 1.84 1.95 1.97 1.76 1.96 2.29 2.03 1.98 1.77 1.53 1.39 1.27 1.20 1.07 0.97 0.93 1.11 1.27 1.45
1.08 1.15 1.09 1.13 1.13 1.06 1.04 1.10 1.11 1.06 1.12 1.10 0.96 0.81 0.78 0.90 1.04 1.23 1.47 1.70 1.81 1.83 1.82 1.85 2.07 2.07 2.11 1.97 1.57 1.40 1.42 1.41 1.23 1.09 1.01 0.97 1.01 1.18
1.11 1.20 1.21 1.13 1.11 1.07 1.04 1.02 0.99 1.03 1.09 1.04 0.90 0.79 0.80 0.93 1.10 1.24 1.43 1.62 1.86 1.86 1.80 1.84 2.02 2.29 2.32 1.90 1.67 1.52 1.39 1.51 1.41 1.24 1.13 1.05 1.01 1.02
1.38 1.35 1.28 1.22 1.22 1.12 1.04 0.98 0.97 1.03 1.07 0.96 0.93 0.94 0.96 1.02 1.10 1.17 1.35 1.51 1.72 1.67 1.70 1.86 2.05 2.23 2.37 2.24 2.03 1.66 1.44 1.38 1.36 1.32 1.26 1.21 1.17 1.11
1.43 1.39 1.23 1.12 1.08 1.05 1.05 1.03 0.97 0.94 0.93 0.94 0.98 0.99 1.02 1.05 1.09 1.11 1.23 1.41 1.53 1.50 1.55 1.72 1.97 2.23 2.44 2.56 2.28 1.83 1.55 1.44 1.41 1.39 1.31 1.28 1.29 1.26
1.16 1.09 1.02 0.99 0.99 0.98 0.98 0.99 0.94 0.85 0.87 0.97 1.02 1.02 1.04 1.08 1.12 1.14 1.19 1.31 1.40 1.44 1.51 1.64 1.86 2.11 2.19 2.19 2.28 2.00 1.72 1.57 1.51 1.54 1.46 1.30 1.28 1.29
0.94 0.92 0.92 0.91 0.94 0.98 0.95 0.93 0.90 0.87 0.91 0.96 1.00 1.01 1.05 1.11 1.12 1.10 1.12 1.22 1.31 1.37 1.44 1.55 1.73 1.97 2.12 1.98 2.02 2.05 1.98 1.75 1.59 1.59 1.57 1.45 1.40 1.44
0.84 0.83 0.84 0.89 0.91 0.91 0.89 0.88 0.89 0.89 0.88 0.92 0.96 0.99 1.02 1.09 1.09 1.02 1.04 1.14 1.25 1.29 1.33 1.32 1.45 1.73 2.02 2.08 2.01 1.87 1.94 2.05 1.80 1.63 1.58 1.60 1.59 1.58
0.76 0.78 0.78 0.82 0.89 0.92 0.90 0.88 0.89 0.86 0.86 0.89 0.90 0.92 0.94 1.01 1.03 1.00 1.03 1.10 1.12 1.15 1.21 1.24 1.32 1.58 1.95 2.14 2.03 1.82 1.82 2.02 2.19 2.00 1.72 1.60 1.71 1.84
0.79 0.78 0.77 0.78 0.84 0.89 0.93 0.92 0.89 0.82 0.80 0.85 0.86 0.85 0.88 0.94 0.93 0.96 0.99 1.03 1.07 1.09 1.16 1.26 1.32 1.49 1.76 1.94 2.03 1.94 1.82 1.82 1.93 2.04 2.13 1.86 1.51 1.44